Time,TemperatureF,DewpointF,PressureIn,WindDirection,WindDirectionDegrees,WindSpeedMPH,WindSpeedGustMPH,Humidity,HourlyPrecipIn,Conditions,Clouds,dailyrainin,SoftwareType,DateUTC
2013-05-02 00:13:00,69.8,63.0,29.78,NE,36,2.0,-999.0,79,-99.99,,,0.00,weatherlink.com 1.10,2013-05-02 05:13:00,
2013-05-02 00:28:00,69.2,63.0,29.80,NE,53,1.0,-999.0,80,-99.99,,,0.00,weatherlink.com 1.10,2013-05-02 05:28:00,
2013-05-02 00:44:00,68.7,63.0,29.82,North,11,0.0,-999.0,81,-99.99,,,0.00,weatherlink.com 1.10,2013-05-02 05:44:00,
2013-05-02 00:59:00,68.3,63.0,29.84,NE,37,0.0,-999.0,82,-99.99,,,0.00,weatherlink.com 1.10,2013-05-02 05:59:00,
2013-05-02 01:14:00,68.1,62.0,29.84,NE,37,0.0,-999.0,82,-99.99,,,0.00,weatherlink.com 1.10,2013-05-02 06:14:00,
2013-05-02 01:29:00,68.1,63.0,29.85,NNE,21,2.0,-999.0,83,-99.99,,,0.00,weatherlink.com 1.10,2013-05-02 06:29:00,
2013-05-02 01:44:00,68.2,63.0,29.86,NE,43,1.0,-999.0,82,-99.99,,,0.00,weatherlink.com 1.10,2013-05-02 06:44:00,
2013-05-02 01:59:00,68.2,63.0,29.85,North,5,6.0,-999.0,82,-99.99,,,0.00,weatherlink.com 1.10,2013-05-02 06:59:00,
2013-05-02 02:14:00,68.0,62.0,29.84,NNE,18,3.0,-999.0,82,-99.99,,,0.00,weatherlink.com 1.10,2013-05-02 07:14:00,
2013-05-02 02:29:00,67.5,62.0,29.85,North,355,5.0,-999.0,83,-99.99,,,0.00,weatherlink.com 1.10,2013-05-02 07:29:00,
2013-05-02 02:46:00,67.1,62.0,29.84,NNW,338,8.0,-999.0,83,-99.99,,,0.00,weatherlink.com 1.10,2013-05-02 07:46:00,
2013-05-02 02:59:00,67.1,62.0,29.84,NE,51,3.0,-999.0,83,-99.99,,,0.00,weatherlink.com 1.10,2013-05-02 07:59:00,
2013-05-02 03:14:00,67.0,61.0,29.85,NNW,330,6.0,-999.0,82,-99.99,,,0.00,weatherlink.com 1.10,2013-05-02 08:14:00,
2013-05-02 03:29:00,67.0,61.0,29.84,NNE,22,7.0,-999.0,82,-99.99,,,0.00,weatherlink.com 1.10,2013-05-02 08:29:00,
2013-05-02 03:44:00,63.9,56.0,29.84,North,355,9.0,-999.0,76,-99.99,,,0.00,weatherlink.com 1.10,2013-05-02 08:44:00,
2013-05-02 03:59:00,61.8,55.0,29.87,North,11,2.0,-999.0,77,-99.99,,,0.00,weatherlink.com 1.10,2013-05-02 08:59:00,
2013-05-02 04:14:00,60.4,53.0,29.88,North,5,10.0,-999.0,76,-99.99,,,0.00,weatherlink.com 1.10,2013-05-02 09:14:00,
2013-05-02 04:29:00,58.7,52.0,29.89,NW,323,5.0,-999.0,77,-99.99,,,0.00,weatherlink.com 1.10,2013-05-02 09:29:00,
2013-05-02 04:44:00,56.5,51.0,29.90,North,10,11.0,-999.0,83,-99.99,,,0.00,weatherlink.com 1.10,2013-05-02 09:44:00,
2013-05-02 04:59:00,54.6,50.0,29.91,WNW,292,6.0,-999.0,85,-99.99,,,0.00,weatherlink.com 1.10,2013-05-02 09:59:00,
2013-05-02 05:14:00,53.9,50.0,29.92,NW,309,4.0,-999.0,87,-99.99,,,0.00,weatherlink.com 1.10,2013-05-02 10:14:00,
2013-05-02 05:29:00,52.9,49.0,29.93,NNE,22,4.0,-999.0,86,-99.99,,,0.00,weatherlink.com 1.10,2013-05-02 10:29:00,
2013-05-02 05:44:00,52.2,48.0,29.94,NNE,13,4.0,-999.0,86,-99.99,,,0.00,weatherlink.com 1.10,2013-05-02 10:44:00,
2013-05-02 05:59:00,51.5,47.0,29.95,North,355,12.0,-999.0,85,-99.99,,,0.00,weatherlink.com 1.10,2013-05-02 10:59:00,
2013-05-02 06:14:00,50.6,47.0,29.96,NW,310,10.0,-999.0,86,-99.99,,,0.00,weatherlink.com 1.10,2013-05-02 11:14:00,
2013-05-02 06:29:00,50.0,46.0,29.97,NE,44,9.0,-999.0,86,-99.99,,,0.00,weatherlink.com 1.10,2013-05-02 11:29:00,
2013-05-02 06:44:00,49.4,46.0,29.98,NNW,345,6.0,-999.0,88,-99.99,,,0.01,weatherlink.com 1.10,2013-05-02 11:44:00,
2013-05-02 07:00:00,48.7,46.0,29.99,NW,317,10.0,-999.0,89,-99.99,,,0.01,weatherlink.com 1.10,2013-05-02 12:00:00,
2013-05-02 07:15:00,48.4,45.0,29.99,North,355,18.0,-999.0,88,-99.99,,,0.01,weatherlink.com 1.10,2013-05-02 12:15:00,
2013-05-02 07:30:00,48.2,45.0,30.01,NNW,348,3.0,-999.0,88,-99.99,,,0.01,weatherlink.com 1.10,2013-05-02 12:30:00,
2013-05-02 07:45:00,48.2,46.0,30.02,NW,319,7.0,-999.0,92,-99.99,,,0.01,weatherlink.com 1.10,2013-05-02 12:45:00,
2013-05-02 08:00:00,47.9,45.0,30.02,NNW,346,13.0,-999.0,88,-99.99,,,0.01,weatherlink.com 1.10,2013-05-02 13:00:00,
2013-05-02 08:15:00,48.1,44.0,30.02,NNE,29,5.0,-999.0,87,-99.99,,,0.01,weatherlink.com 1.10,2013-05-02 13:15:00,
2013-05-02 08:30:00,48.5,44.0,30.04,NE,52,7.0,-999.0,85,-99.99,,,0.01,weatherlink.com 1.10,2013-05-02 13:30:00,
2013-05-02 08:45:00,48.6,44.0,30.04,North,360,12.0,-999.0,83,-99.99,,,0.01,weatherlink.com 1.10,2013-05-02 13:45:00,
2013-05-02 09:00:00,48.7,43.0,30.04,NE,43,13.0,-999.0,82,-99.99,,,0.01,weatherlink.com 1.10,2013-05-02 14:00:00,
2013-05-02 09:15:00,49.1,44.0,30.05,NNW,333,10.0,-999.0,82,-99.99,,,0.01,weatherlink.com 1.10,2013-05-02 14:15:00,
2013-05-02 09:30:00,49.3,44.0,30.05,NNW,338,7.0,-999.0,81,-99.99,,,0.01,weatherlink.com 1.10,2013-05-02 14:30:00,
2013-05-02 09:45:00,49.0,43.0,30.04,NW,321,6.0,-999.0,80,-99.99,,,0.01,weatherlink.com 1.10,2013-05-02 14:45:00,
2013-05-02 10:02:00,49.0,43.0,30.06,NW,315,5.0,-999.0,81,-99.99,,,0.01,weatherlink.com 1.10,2013-05-02 15:02:00,
2013-05-02 10:15:00,49.1,43.0,30.06,NW,304,6.0,-999.0,79,-99.99,,,0.01,weatherlink.com 1.10,2013-05-02 15:15:00,
2013-05-02 10:30:00,49.1,43.0,30.07,NE,35,10.0,-999.0,78,-99.99,,,0.01,weatherlink.com 1.10,2013-05-02 15:30:00,
2013-05-02 10:45:00,49.2,43.0,30.07,NNE,14,3.0,-999.0,78,-99.99,,,0.01,weatherlink.com 1.10,2013-05-02 15:45:00,
2013-05-02 11:00:00,49.4,43.0,30.07,NNE,22,7.0,-999.0,78,-99.99,,,0.01,weatherlink.com 1.10,2013-05-02 16:00:00,
2013-05-02 11:15:00,49.5,43.0,30.07,North,5,4.0,-999.0,77,-99.99,,,0.01,weatherlink.com 1.10,2013-05-02 16:15:00,
2013-05-02 11:30:00,49.7,43.0,30.09,NNW,344,10.0,-999.0,79,-99.99,,,0.01,weatherlink.com 1.10,2013-05-02 16:30:00,
2013-05-02 11:45:00,49.7,43.0,30.09,NNW,348,9.0,-999.0,78,-99.99,,,0.01,weatherlink.com 1.10,2013-05-02 16:45:00,
2013-05-02 12:00:00,49.6,43.0,30.10,North,355,3.0,-999.0,77,-99.99,,,0.01,weatherlink.com 1.10,2013-05-02 17:00:00,
2013-05-02 12:15:00,49.7,43.0,30.11,NNE,19,8.0,-999.0,77,-99.99,,,0.01,weatherlink.com 1.10,2013-05-02 17:15:00,
2013-05-02 12:30:00,49.7,43.0,30.11,North,9,6.0,-999.0,77,-99.99,,,0.01,weatherlink.com 1.10,2013-05-02 17:30:00,
2013-05-02 12:45:00,50.1,43.0,30.11,NW,325,10.0,-999.0,76,-99.99,,,0.01,weatherlink.com 1.10,2013-05-02 17:45:00,
2013-05-02 13:00:00,50.2,43.0,30.11,North,355,10.0,-999.0,75,-99.99,,,0.01,weatherlink.com 1.10,2013-05-02 18:00:00,
2013-05-02 13:15:00,50.7,43.0,30.11,NW,307,7.0,-999.0,75,-99.99,,,0.01,weatherlink.com 1.10,2013-05-02 18:15:00,
2013-05-02 13:30:00,50.0,42.0,30.11,NW,312,3.0,-999.0,75,-99.99,,,0.01,weatherlink.com 1.10,2013-05-02 18:30:00,
2013-05-02 13:45:00,49.5,42.0,30.11,NNW,329,14.0,-999.0,75,-99.99,,,0.01,weatherlink.com 1.10,2013-05-02 18:45:00,
2013-05-02 14:00:00,49.0,41.0,30.12,NNE,12,7.0,-999.0,75,-99.99,,,0.01,weatherlink.com 1.10,2013-05-02 19:00:00,
2013-05-02 14:15:00,48.9,41.0,30.12,West,269,2.0,-999.0,75,-99.99,,,0.01,weatherlink.com 1.10,2013-05-02 19:15:00,
2013-05-02 14:30:00,47.7,40.0,30.14,West,278,9.0,-999.0,76,-99.99,,,0.01,weatherlink.com 1.10,2013-05-02 19:30:00,
2013-05-02 14:45:00,47.3,40.0,30.14,North,355,6.0,-999.0,77,-99.99,,,0.01,weatherlink.com 1.10,2013-05-02 19:45:00,
2013-05-02 15:00:00,47.3,40.0,30.14,NNE,15,13.0,-999.0,77,-99.99,,,0.01,weatherlink.com 1.10,2013-05-02 20:00:00,
2013-05-02 15:15:00,47.3,40.0,30.14,NE,34,15.0,-999.0,76,-99.99,,,0.01,weatherlink.com 1.10,2013-05-02 20:15:00,
2013-05-02 15:30:00,47.2,41.0,30.14,North,349,11.0,-999.0,78,-99.99,,,0.01,weatherlink.com 1.10,2013-05-02 20:30:00,
2013-05-02 15:45:00,46.7,40.0,30.14,NW,318,18.0,-999.0,78,-99.99,,,0.01,weatherlink.com 1.10,2013-05-02 20:45:00,
2013-05-02 16:00:00,46.2,40.0,30.14,NNE,12,10.0,-999.0,80,-99.99,,,0.01,weatherlink.com 1.10,2013-05-02 21:00:00,
2013-05-02 16:16:00,45.1,41.0,30.16,NNW,342,7.0,-999.0,84,-99.99,,,0.01,weatherlink.com 1.10,2013-05-02 21:16:00,
2013-05-02 16:30:00,45.1,41.0,30.16,SSE,165,3.0,-999.0,84,-99.99,,,0.01,weatherlink.com 1.10,2013-05-02 21:30:00,
2013-05-02 16:45:00,45.5,41.0,30.15,NW,322,10.0,-999.0,83,-99.99,,,0.01,weatherlink.com 1.10,2013-05-02 21:45:00,
2013-05-02 17:00:00,45.0,40.0,30.15,NW,325,7.0,-999.0,83,-99.99,,,0.01,weatherlink.com 1.10,2013-05-02 22:00:00,
2013-05-02 17:15:00,44.3,40.0,30.15,NW,325,5.0,-999.0,84,-99.99,,,0.01,weatherlink.com 1.10,2013-05-02 22:15:00,
2013-05-02 17:30:00,44.2,40.0,30.17,NNE,26,5.0,-999.0,85,-99.99,,,0.01,weatherlink.com 1.10,2013-05-02 22:30:00,
2013-05-02 17:46:00,44.2,40.0,30.15,North,355,12.0,-999.0,84,-99.99,,,0.01,weatherlink.com 1.10,2013-05-02 22:46:00,
2013-05-02 18:01:00,43.7,40.0,30.16,WNW,296,15.0,-999.0,85,-99.99,,,0.01,weatherlink.com 1.10,2013-05-02 23:01:00,
2013-05-02 18:16:00,43.9,39.0,30.16,East,86,6.0,-999.0,83,-99.99,,,0.01,weatherlink.com 1.10,2013-05-02 23:16:00,
2013-05-02 18:31:00,43.8,39.0,30.17,North,360,16.0,-999.0,83,-99.99,,,0.01,weatherlink.com 1.10,2013-05-02 23:31:00,
2013-05-02 18:46:00,43.7,39.0,30.17,NNW,348,10.0,-999.0,83,-99.99,,,0.01,weatherlink.com 1.10,2013-05-02 23:46:00,
2013-05-02 19:01:00,44.1,39.0,30.18,NNE,22,7.0,-999.0,81,-99.99,,,0.01,weatherlink.com 1.10,2013-05-03 00:01:00,
2013-05-02 19:16:00,43.9,39.0,30.18,North,360,14.0,-999.0,82,-99.99,,,0.01,weatherlink.com 1.10,2013-05-03 00:16:00,
2013-05-02 19:31:00,43.8,39.0,30.18,West,272,9.0,-999.0,83,-99.99,,,0.01,weatherlink.com 1.10,2013-05-03 00:31:00,
2013-05-02 19:46:00,43.8,39.0,30.18,NNE,28,12.0,-999.0,83,-99.99,,,0.01,weatherlink.com 1.10,2013-05-03 00:46:00,
2013-05-02 20:01:00,44.3,39.0,30.19,NW,315,14.0,-999.0,81,-99.99,,,0.01,weatherlink.com 1.10,2013-05-03 01:01:00,
2013-05-02 20:16:00,44.6,38.0,30.19,NNW,333,5.0,-999.0,79,-99.99,,,0.01,weatherlink.com 1.10,2013-05-03 01:16:00,
2013-05-02 20:31:00,44.5,39.0,30.19,NNE,28,6.0,-999.0,80,-99.99,,,0.01,weatherlink.com 1.10,2013-05-03 01:31:00,
2013-05-02 20:46:00,44.6,39.0,30.20,NW,309,6.0,-999.0,80,-99.99,,,0.01,weatherlink.com 1.10,2013-05-03 01:46:00,
2013-05-02 21:01:00,45.0,39.0,30.19,NNE,15,9.0,-999.0,79,-99.99,,,0.01,weatherlink.com 1.10,2013-05-03 02:01:00,
2013-05-02 21:16:00,45.2,38.0,30.20,NNW,340,15.0,-999.0,76,-99.99,,,0.01,weatherlink.com 1.10,2013-05-03 02:16:00,
2013-05-02 21:31:00,45.3,38.0,30.20,North,360,7.0,-999.0,76,-99.99,,,0.01,weatherlink.com 1.10,2013-05-03 02:31:00,
2013-05-02 21:46:00,45.3,38.0,30.20,NW,311,13.0,-999.0,76,-99.99,,,0.01,weatherlink.com 1.10,2013-05-03 02:46:00,
2013-05-02 22:01:00,45.1,38.0,30.20,NNE,20,6.0,-999.0,77,-99.99,,,0.01,weatherlink.com 1.10,2013-05-03 03:01:00,
2013-05-02 22:16:00,45.2,39.0,30.20,WNW,303,7.0,-999.0,78,-99.99,,,0.01,weatherlink.com 1.10,2013-05-03 03:16:00,
2013-05-02 22:31:00,45.1,39.0,30.20,North,5,7.0,-999.0,78,-99.99,,,0.01,weatherlink.com 1.10,2013-05-03 03:31:00,
2013-05-02 22:46:00,45.3,39.0,30.20,NNE,13,12.0,-999.0,77,-99.99,,,0.01,weatherlink.com 1.10,2013-05-03 03:46:00,
2013-05-02 23:01:00,45.9,38.0,30.20,North,355,9.0,-999.0,73,-99.99,,,0.01,weatherlink.com 1.10,2013-05-03 04:01:00,
2013-05-02 23:16:00,45.8,37.0,30.20,NE,34,8.0,-999.0,72,-99.99,,,0.01,weatherlink.com 1.10,2013-05-03 04:16:00,
2013-05-02 23:32:00,45.8,37.0,30.19,WNW,302,9.0,-999.0,71,-99.99,,,0.01,weatherlink.com 1.10,2013-05-03 04:32:00,
2013-05-02 23:46:00,45.8,37.0,30.19,NW,319,7.0,-999.0,71,-99.99,,,0.01,weatherlink.com 1.10,2013-05-03 04:46:00,